Multibeam Report for KRY10_02


Ship Name: Keary
Chief Scientist: Cullen, Sean
Source Organization: Geological Survey of Ireland (GSI)
Start Date: 2010-06-23
End Date: 2010-06-29


View ISO Metadata

Visit the full NCEI Bathymetry Viewer


Multibeam Bathymetry

Cruise Details

Project: INFOMAR
Instrument: Simrad EM3002d

Data Quality

Number of Files: 178
Number of Records: 1381434
BATHYMETRY DATA Quantity Percentage
Number of Beams 701330664 100%
Number of Good Beams 697057301 99.39%
Number of Zero Beams 4273363 0.61%
Number of Flagged Beams 0 0%
AMPLITUDE DATA Quantity Percentage
Number of Beams 701330664 100%
Number of Good Beams 697057301 99.39%
Number of Zero Beams 4273363 0.61%
Number of Flagged Beams 0 0%
SIDESCAN DATA Quantity Percentage
Number of Pixels 2827428864 100%
Number of Good Pixels 1163600243 41.15%
Number of Zero Pixels 0 0%
Number of Flagged Pixels 1663828621 58.85%

Navigation Totals

Total Time: 41.1704 hours
Total Track Length: 468.7494 km
Average Speed: 11.386 km/hr (6.1480 knots)

Cruise Bounds

Northern Extent: 51.7045
Southern Extent: 51.4085
Western Extent: -8.5538
Eastern Extent: -8.3773

Limits

Minimum Sonar Depth 0 Maximum Sonar Depth 2.91
Minimum Altitude 1.14 Maximum Altitude 149.19
Minimum Depth 0.29 Maximum Depth 152.42
Minimum Amplitude 0 Maximum Amplitude 28.5
Minimum Sidescan 0 Maximum Sidescan 35.11

File Information

Full Resolution Bathymetry as collected (raw): 177

Files File Size Description
0002_20100623_100713_Keary.all.mb56.gz 74.88MB Simrad multibeam vendor format
0003_20100623_101844_Keary.all.mb56.gz 441.32MB Simrad multibeam vendor format
0004_20100623_114056_Keary.all.mb56.gz 91.25MB Simrad multibeam vendor format
0005_20100623_123701_Keary.all.mb56.gz 127.53MB Simrad multibeam vendor format
0006_20100623_130551_Keary.all.mb56.gz 171.58MB Simrad multibeam vendor format
0007_20100623_134308_Keary.all.mb56.gz 165.47MB Simrad multibeam vendor format
0008_20100623_141936_Keary.all.mb56.gz 185.32MB Simrad multibeam vendor format
0009_20100623_145844_Keary.all.mb56.gz 207.67MB Simrad multibeam vendor format
0010_20100623_154014_Keary.all.mb56.gz 215.82MB Simrad multibeam vendor format
0011_20100623_162132_Keary.all.mb56.gz 413.33MB Simrad multibeam vendor format
0012_20100623_172922_Keary.all.mb56.gz 57.21MB Simrad multibeam vendor format
0013_20100623_173918_Keary.all.mb56.gz 60.72MB Simrad multibeam vendor format
0014_20100624_095237_Keary.all.mb56.gz 190.88MB Simrad multibeam vendor format
0015_20100624_110424_Keary.all.mb56.gz 151.96MB Simrad multibeam vendor format
0016_20100624_114347_Keary.all.mb56.gz 196.49MB Simrad multibeam vendor format
0017_20100624_123255_Keary.all.mb56.gz 179.60MB Simrad multibeam vendor format
0018_20100624_132029_Keary.all.mb56.gz 217.91MB Simrad multibeam vendor format
0019_20100624_141750_Keary.all.mb56.gz 213.32MB Simrad multibeam vendor format
0020_20100624_151027_Keary.all.mb56.gz 214.78MB Simrad multibeam vendor format
0021_20100624_160229_Keary.all.mb56.gz 227.51MB Simrad multibeam vendor format
0022_20100624_165302_Keary.all.mb56.gz 324.55MB Simrad multibeam vendor format
0023_20100624_180120_Keary.all.mb56.gz 238.73MB Simrad multibeam vendor format
0024_20100627_132952_Keary.all.mb56.gz 146.86MB Simrad multibeam vendor format
0025_20100627_142539_Keary.all.mb56.gz 75.11MB Simrad multibeam vendor format
0026_20100627_143420_Keary.all.mb56.gz 54.68MB Simrad multibeam vendor format
0027_20100627_144050_Keary.all.mb56.gz 73.02MB Simrad multibeam vendor format
0028_20100627_144744_Keary.all.mb56.gz 84.54MB Simrad multibeam vendor format
0029_20100627_145735_Keary.all.mb56.gz 107.11MB Simrad multibeam vendor format
0030_20100627_150807_Keary.all.mb56.gz 62.03MB Simrad multibeam vendor format
0031_20100627_151433_Keary.all.mb56.gz 69.00MB Simrad multibeam vendor format
0032_20100627_152201_Keary.all.mb56.gz 25.30MB Simrad multibeam vendor format
0033_20100627_152455_Keary.all.mb56.gz 57.18MB Simrad multibeam vendor format
0034_20100627_160559_Keary.all.mb56.gz 8.27MB Simrad multibeam vendor format
0034_20100627_161027_Keary.all.mb56.gz 96.01MB Simrad multibeam vendor format
0035_20100627_162227_Keary.all.mb56.gz 108.68MB Simrad multibeam vendor format
0036_20100627_163625_Keary.all.mb56.gz 90.11MB Simrad multibeam vendor format
0037_20100627_164826_Keary.all.mb56.gz 96.06MB Simrad multibeam vendor format
0038_20100627_170138_Keary.all.mb56.gz 98.21MB Simrad multibeam vendor format
0039_20100627_171438_Keary.all.mb56.gz 99.58MB Simrad multibeam vendor format
0040_20100627_172727_Keary.all.mb56.gz 69.87MB Simrad multibeam vendor format
0041_20100627_173707_Keary.all.mb56.gz 91.92MB Simrad multibeam vendor format
0042_20100627_174857_Keary.all.mb56.gz 97.58MB Simrad multibeam vendor format
0043_20100627_180048_Keary.all.mb56.gz 82.36MB Simrad multibeam vendor format
0044_20100627_181204_Keary.all.mb56.gz 90.01MB Simrad multibeam vendor format
0045_20100627_182318_Keary.all.mb56.gz 74.81MB Simrad multibeam vendor format
0046_20100627_183317_Keary.all.mb56.gz 80.80MB Simrad multibeam vendor format
0047_20100627_184504_Keary.all.mb56.gz 82.09MB Simrad multibeam vendor format
0048_20100627_185858_Keary.all.mb56.gz 132.34MB Simrad multibeam vendor format
0049_20100629_070020_Keary.all.mb56.gz 5.62MB Simrad multibeam vendor format
0049_20100629_070736_Keary.all.mb56.gz 148.26MB Simrad multibeam vendor format
0050_20100629_072850_Keary.all.mb56.gz 365.34MB Simrad multibeam vendor format
0051_20100629_081816_Keary.all.mb56.gz 126.26MB Simrad multibeam vendor format
0051_20100629_083443_Keary.all.mb56.gz 36.30MB Simrad multibeam vendor format
0052_20100629_091902_Keary.all.mb56.gz 92.98MB Simrad multibeam vendor format
0053_20100629_093926_Keary.all.mb56.gz 190.12MB Simrad multibeam vendor format
0054_20100629_101531_Keary.all.mb56.gz 178.37MB Simrad multibeam vendor format
0055_20100629_104943_Keary.all.mb56.gz 211.24MB Simrad multibeam vendor format
0056_20100629_112538_Keary.all.mb56.gz 297.92MB Simrad multibeam vendor format
0057_20100629_154533_Keary.all.mb56.gz 159.87MB Simrad multibeam vendor format
0057_20100629_155328_Keary.all.mb56.gz 141.59MB Simrad multibeam vendor format
0057_20100629_155820_Keary.all.mb56.gz 232.01MB Simrad multibeam vendor format
0057_20100629_160738_Keary.all.mb56.gz 79.83MB Simrad multibeam vendor format
0057_20100629_161028_Keary.all.mb56.gz 90.12MB Simrad multibeam vendor format
0057_20100629_161338_Keary.all.mb56.gz 82.15MB Simrad multibeam vendor format
0057_20100629_161616_Keary.all.mb56.gz 81.05MB Simrad multibeam vendor format
0057_20100629_162104_Keary.all.mb56.gz 104.46MB Simrad multibeam vendor format
0057_20100629_162635_Keary.all.mb56.gz 164.33MB Simrad multibeam vendor format
0057_20100629_163313_Keary.all.mb56.gz 104.16MB Simrad multibeam vendor format
0057_20100629_163810_Keary.all.mb56.gz 208.43MB Simrad multibeam vendor format
0058_20100630_091723_Keary.all.mb56.gz 135.61MB Simrad multibeam vendor format
0059_20100630_100835_Keary.all.mb56.gz 107.65MB Simrad multibeam vendor format
0060_20100630_102828_Keary.all.mb56.gz 205.54MB Simrad multibeam vendor format
0061_20100630_110704_Keary.all.mb56.gz 11.25MB Simrad multibeam vendor format
0061_20100630_111416_Keary.all.mb56.gz 9.33MB Simrad multibeam vendor format
0061_20100630_111729_Keary.all.mb56.gz 7.70MB Simrad multibeam vendor format
0061_20100630_112011_Keary.all.mb56.gz 9.16MB Simrad multibeam vendor format
0062_20100630_112443_Keary.all.mb56.gz 161.04MB Simrad multibeam vendor format
0063_20100630_115340_Keary.all.mb56.gz 86.05MB Simrad multibeam vendor format
0064_20100630_121015_Keary.all.mb56.gz 96.14MB Simrad multibeam vendor format
0065_20100630_123316_Keary.all.mb56.gz 28.16MB Simrad multibeam vendor format
0066_20100630_124008_Keary.all.mb56.gz 25.14MB Simrad multibeam vendor format
0067_20100630_124647_Keary.all.mb56.gz 29.22MB Simrad multibeam vendor format
0068_20100630_125432_Keary.all.mb56.gz 22.82MB Simrad multibeam vendor format
0068_20100630_130419_Keary.all.mb56.gz 46.27MB Simrad multibeam vendor format
0069_20100630_131613_Keary.all.mb56.gz 10.47MB Simrad multibeam vendor format
0069_20100630_132009_Keary.all.mb56.gz 32.63MB Simrad multibeam vendor format
0070_20100630_142440_Keary.all.mb56.gz 8.43MB Simrad multibeam vendor format
0070_20100630_142905_Keary.all.mb56.gz 108.48MB Simrad multibeam vendor format
0071_20100630_144621_Keary.all.mb56.gz 44.22MB Simrad multibeam vendor format
0072_20100630_145617_Keary.all.mb56.gz 50.90MB Simrad multibeam vendor format
0073_20100630_150620_Keary.all.mb56.gz 42.27MB Simrad multibeam vendor format
0074_20100630_151504_Keary.all.mb56.gz 64.30MB Simrad multibeam vendor format
0075_20100630_152558_Keary.all.mb56.gz 55.36MB Simrad multibeam vendor format
0075_20100630_153527_Keary.all.mb56.gz 53.07MB Simrad multibeam vendor format
0075_20100630_154409_Keary.all.mb56.gz 64.62MB Simrad multibeam vendor format
0075_20100630_155440_Keary.all.mb56.gz 58.76MB Simrad multibeam vendor format
0076_20100630_161440_Keary.all.mb56.gz 115.13MB Simrad multibeam vendor format
0077_20100630_163332_Keary.all.mb56.gz 113.80MB Simrad multibeam vendor format
0078_20100630_165139_Keary.all.mb56.gz 295.39MB Simrad multibeam vendor format
0079_20100630_173704_Keary.all.mb56.gz 115.70MB Simrad multibeam vendor format
0080_20100702_094022_Keary.all.mb56.gz 41.28MB Simrad multibeam vendor format
0080_20100702_094708_Keary.all.mb56.gz 229.09MB Simrad multibeam vendor format
0080_20100702_101249_Keary.all.mb56.gz 81.53MB Simrad multibeam vendor format
0080_20100702_102320_Keary.all.mb56.gz 46.35MB Simrad multibeam vendor format
0081_20100703_083643_Keary.all.mb56.gz 83.10MB Simrad multibeam vendor format
0082_20100703_084653_Keary.all.mb56.gz 48.23MB Simrad multibeam vendor format
0082_20100703_085221_Keary.all.mb56.gz 99.07MB Simrad multibeam vendor format
0082_20100703_090405_Keary.all.mb56.gz 211.03MB Simrad multibeam vendor format
0083_20100703_092541_Keary.all.mb56.gz 68.83MB Simrad multibeam vendor format
0083_20100703_093339_Keary.all.mb56.gz 45.70MB Simrad multibeam vendor format
0083_20100703_093806_Keary.all.mb56.gz 33.57MB Simrad multibeam vendor format
0083_20100703_094204_Keary.all.mb56.gz 40.35MB Simrad multibeam vendor format
0084_20100703_094942_Keary.all.mb56.gz 38.46MB Simrad multibeam vendor format
0084_20100703_095328_Keary.all.mb56.gz 43.68MB Simrad multibeam vendor format
0085_20100703_095827_Keary.all.mb56.gz 156.99MB Simrad multibeam vendor format
0086_20100703_110750_Keary.all.mb56.gz 101.81MB Simrad multibeam vendor format
0087_20100703_112044_Keary.all.mb56.gz 104.88MB Simrad multibeam vendor format
0088_20100703_113410_Keary.all.mb56.gz 109.22MB Simrad multibeam vendor format
0089_20100703_114758_Keary.all.mb56.gz 104.94MB Simrad multibeam vendor format
0089_20100703_115943_Keary.all.mb56.gz 173.99MB Simrad multibeam vendor format
0090_20100703_122017_Keary.all.mb56.gz 72.55MB Simrad multibeam vendor format
0091_20100703_122955_Keary.all.mb56.gz 79.37MB Simrad multibeam vendor format
0092_20100703_123948_Keary.all.mb56.gz 76.65MB Simrad multibeam vendor format
0093_20100703_125142_Keary.all.mb56.gz 83.47MB Simrad multibeam vendor format
0094_20100703_130531_Keary.all.mb56.gz 85.69MB Simrad multibeam vendor format
0094_20100703_131640_Keary.all.mb56.gz 96.64MB Simrad multibeam vendor format
0095_20100703_132948_Keary.all.mb56.gz 70.24MB Simrad multibeam vendor format
0096_20100703_133848_Keary.all.mb56.gz 20.28MB Simrad multibeam vendor format
0096_20100703_134314_Keary.all.mb56.gz 70.47MB Simrad multibeam vendor format
0097_20100703_150113_Keary.all.mb56.gz 35.90MB Simrad multibeam vendor format
0097_20100703_150802_Keary.all.mb56.gz 96.87MB Simrad multibeam vendor format
0098_20100703_152346_Keary.all.mb56.gz 45.78MB Simrad multibeam vendor format
0098_20100703_153137_Keary.all.mb56.gz 41.72MB Simrad multibeam vendor format
0098_20100703_153920_Keary.all.mb56.gz 50.51MB Simrad multibeam vendor format
0098_20100703_154742_Keary.all.mb56.gz 50.10MB Simrad multibeam vendor format
0098_20100703_155703_Keary.all.mb56.gz 35.86MB Simrad multibeam vendor format
0098_20100703_160331_Keary.all.mb56.gz 37.45MB Simrad multibeam vendor format
0098_20100703_160935_Keary.all.mb56.gz 50.29MB Simrad multibeam vendor format
0099_20100703_161629_Keary.all.mb56.gz 109.96MB Simrad multibeam vendor format
0100_20100703_165312_Keary.all.mb56.gz 13.22MB Simrad multibeam vendor format
0100_20100703_170527_Keary.all.mb56.gz 2.68MB Simrad multibeam vendor format
0101_20100716_103137_Keary.all.mb56.gz 32.52MB Simrad multibeam vendor format
0102_20100716_104428_Keary.all.mb56.gz 29.86MB Simrad multibeam vendor format
0103_20100716_105431_Keary.all.mb56.gz 63.83MB Simrad multibeam vendor format
0104_20100716_111001_Keary.all.mb56.gz 45.74MB Simrad multibeam vendor format
0105_20100716_112125_Keary.all.mb56.gz 55.31MB Simrad multibeam vendor format
0106_20100716_114148_Keary.all.mb56.gz 80.71MB Simrad multibeam vendor format
0107_20100716_120305_Keary.all.mb56.gz 78.05MB Simrad multibeam vendor format
0108_20100716_124357_Keary.all.mb56.gz 57.09MB Simrad multibeam vendor format
0109_20100716_125719_Keary.all.mb56.gz 30.19MB Simrad multibeam vendor format
0110_20100716_131335_Keary.all.mb56.gz 71.84MB Simrad multibeam vendor format
0111_20100716_134011_Keary.all.mb56.gz 129.59MB Simrad multibeam vendor format
0112_20100716_140030_Keary.all.mb56.gz 13.26MB Simrad multibeam vendor format
0113_20100716_140916_Keary.all.mb56.gz 144.69MB Simrad multibeam vendor format
0114_20100716_142526_Keary.all.mb56.gz 73.08MB Simrad multibeam vendor format
0115_20100717_074628_Keary.all.mb56.gz 401.98MB Simrad multibeam vendor format
0116_20100717_082246_Keary.all.mb56.gz 102.91MB Simrad multibeam vendor format
0117_20100717_083313_Keary.all.mb56.gz 195.94MB Simrad multibeam vendor format
0118_20100717_085412_Keary.all.mb56.gz 250.58MB Simrad multibeam vendor format
0119_20100717_092015_Keary.all.mb56.gz 150.72MB Simrad multibeam vendor format
0120_20100717_093710_Keary.all.mb56.gz 108.70MB Simrad multibeam vendor format
0121_20100717_095715_Keary.all.mb56.gz 186.24MB Simrad multibeam vendor format
0122_20100717_102245_Keary.all.mb56.gz 250.32MB Simrad multibeam vendor format
0123_20100717_110646_Keary.all.mb56.gz 127.44MB Simrad multibeam vendor format
0124_20100717_113201_Keary.all.mb56.gz 104.38MB Simrad multibeam vendor format
0125_20100717_114657_Keary.all.mb56.gz 59.73MB Simrad multibeam vendor format
0126_20100717_115624_Keary.all.mb56.gz 229.51MB Simrad multibeam vendor format
0127_20100717_122441_Keary.all.mb56.gz 88.63MB Simrad multibeam vendor format
3260_20100629_165749_Keary.all.mb56.gz 6.55MB Simrad multibeam vendor format
3261_20100629_170354_Keary.all.mb56.gz 8.57MB Simrad multibeam vendor format
3262_20100629_171049_Keary.all.mb56.gz 6.96MB Simrad multibeam vendor format
3262_20100629_171556_Keary.all.mb56.gz 8.86MB Simrad multibeam vendor format
3263_20100629_173859_Keary.all.mb56.gz 4.13MB Simrad multibeam vendor format
3264_20100629_174524_Keary.all.mb56.gz 6.07MB Simrad multibeam vendor format
3265_20100629_175123_Keary.all.mb56.gz 4.81MB Simrad multibeam vendor format
3266_20100629_181033_Keary.all.mb56.gz 5.50MB Simrad multibeam vendor format
3267_20100629_181413_Keary.all.mb56.gz 5.92MB Simrad multibeam vendor format

Metadata Files: 1

Files File Size Description
KRY10_02_Multibeam.xml NGDC created ISO metadata